TimeCDT,TemperatureF,Dew PointF,Humidity,Sea Level PressureIn,VisibilityMPH,Wind Direction,Wind SpeedMPH,Gust SpeedMPH,PrecipitationIn,Events,Conditions,WindDirDegrees,DateUTC
12:15 AM,51.8,51.8,100,29.96,10.0,Calm,Calm,-,N/A,,Clear,0,2013-05-07 05:15:00
12:35 AM,51.8,51.8,100,29.96,10.0,Calm,Calm,-,N/A,,Clear,0,2013-05-07 05:35:00
12:55 AM,51.8,50.0,94,29.96,5.0,Calm,Calm,-,N/A,,Clear,0,2013-05-07 05:55:00
1:15 AM,50.0,50.0,100,29.95,7.0,Calm,Calm,-,N/A,,Clear,0,2013-05-07 06:15:00
1:35 AM,51.8,51.8,100,29.95,10.0,West,3.5,-,N/A,,Clear,270,2013-05-07 06:35:00
1:55 AM,51.8,51.8,100,29.94,10.0,Calm,Calm,-,N/A,,Clear,0,2013-05-07 06:55:00
2:15 AM,51.8,51.8,100,29.94,10.0,West,3.5,-,N/A,,Clear,280,2013-05-07 07:15:00
2:35 AM,51.8,51.8,100,29.93,10.0,Calm,Calm,-,N/A,,Clear,0,2013-05-07 07:35:00
2:55 AM,51.8,51.8,100,29.92,10.0,Calm,Calm,-,N/A,,Clear,0,2013-05-07 07:55:00
3:15 AM,51.8,50.0,94,29.92,7.0,Calm,Calm,-,N/A,,Clear,0,2013-05-07 08:15:00
3:35 AM,50.0,50.0,100,29.93,1.5,Calm,Calm,-,N/A,,Mist,0,2013-05-07 08:35:00
3:55 AM,50.0,48.2,94,29.93,1.0,Calm,Calm,-,N/A,,Mist,0,2013-05-07 08:55:00
4:15 AM,46.4,46.4,100,29.93,0.8,Calm,Calm,-,N/A,,Mist,0,2013-05-07 09:15:00
4:35 AM,46.4,46.4,100,29.94,0.5,Calm,Calm,-,N/A,Fog,Fog,0,2013-05-07 09:35:00
4:55 AM,46.4,46.4,100,29.94,0.8,Calm,Calm,-,N/A,,Mist,0,2013-05-07 09:55:00
5:15 AM,46.4,46.4,100,29.95,2.0,Calm,Calm,-,N/A,,Scattered Clouds,0,2013-05-07 10:15:00
5:35 AM,46.4,46.4,100,29.96,2.5,Calm,Calm,-,N/A,,Scattered Clouds,0,2013-05-07 10:35:00
5:55 AM,46.4,46.4,100,29.97,2.0,Calm,Calm,-,N/A,,Clear,0,2013-05-07 10:55:00
6:15 AM,46.4,44.6,93,29.98,0.8,Calm,Calm,-,N/A,,Mist,0,2013-05-07 11:15:00
6:35 AM,46.4,46.4,100,29.99,2.0,Calm,Calm,-,N/A,,Clear,0,2013-05-07 11:35:00
6:55 AM,46.4,46.4,100,29.99,2.5,Calm,Calm,-,N/A,,Clear,0,2013-05-07 11:55:00
7:15 AM,50.0,50.0,100,30.00,3.0,Calm,Calm,-,N/A,,Clear,0,2013-05-07 12:15:00
7:35 AM,51.8,51.8,100,30.01,7.0,Calm,Calm,-,N/A,,Clear,0,2013-05-07 12:35:00
7:55 AM,53.6,53.6,100,30.01,10.0,Calm,Calm,-,N/A,,Clear,0,2013-05-07 12:55:00
8:15 AM,55.4,53.6,94,30.02,10.0,Calm,Calm,-,N/A,,Clear,0,2013-05-07 13:15:00
8:35 AM,57.2,53.6,88,30.02,10.0,North,3.5,-,N/A,,Clear,350,2013-05-07 13:35:00
8:55 AM,59.0,55.4,88,30.02,10.0,NNE,3.5,-,N/A,,Mostly Cloudy,20,2013-05-07 13:55:00
9:15 AM,60.8,55.4,82,30.02,10.0,North,3.5,-,N/A,,Overcast,350,2013-05-07 14:15:00
9:35 AM,60.8,55.4,82,30.03,10.0,North,3.5,-,N/A,,Mostly Cloudy,10,2013-05-07 14:35:00
9:55 AM,62.6,55.4,77,30.03,10.0,North,3.5,-,N/A,,Mostly Cloudy,350,2013-05-07 14:55:00
10:15 AM,60.8,55.4,82,30.03,10.0,Calm,Calm,-,N/A,,Overcast,0,2013-05-07 15:15:00
10:35 AM,62.6,55.4,77,30.04,10.0,NW,3.5,-,N/A,,Overcast,320,2013-05-07 15:35:00
11:15 AM,64.4,55.4,73,30.04,10.0,Calm,Calm,-,N/A,,Mostly Cloudy,0,2013-05-07 16:15:00
11:35 AM,66.2,55.4,68,30.04,10.0,NW,4.6,-,N/A,,Scattered Clouds,320,2013-05-07 16:35:00
11:55 AM,68.0,55.4,64,30.03,10.0,North,3.5,-,N/A,,Mostly Cloudy,360,2013-05-07 16:55:00
12:15 PM,68.0,57.2,68,30.03,10.0,NW,3.5,-,N/A,,Scattered Clouds,320,2013-05-07 17:15:00
12:55 PM,69.8,55.4,60,30.02,10.0,NNW,3.5,-,N/A,,Scattered Clouds,330,2013-05-07 17:55:00
1:15 PM,69.8,55.4,60,30.02,10.0,WNW,3.5,-,N/A,,Scattered Clouds,300,2013-05-07 18:15:00
1:35 PM,71.6,55.4,57,30.01,10.0,NW,5.8,-,N/A,,Scattered Clouds,320,2013-05-07 18:35:00
1:55 PM,71.6,53.6,53,30.01,10.0,WNW,5.8,-,N/A,,Scattered Clouds,290,2013-05-07 18:55:00
2:15 PM,71.6,53.6,53,30.00,10.0,NW,3.5,-,N/A,,Scattered Clouds,310,2013-05-07 19:15:00
2:35 PM,73.4,53.6,50,30.00,10.0,WNW,3.5,-,N/A,,Scattered Clouds,300,2013-05-07 19:35:00
2:55 PM,73.4,53.6,50,29.99,10.0,WSW,6.9,-,N/A,,Scattered Clouds,250,2013-05-07 19:55:00
3:15 PM,73.4,53.6,50,29.99,10.0,NW,4.6,-,N/A,,Mostly Cloudy,320,2013-05-07 20:15:00
3:35 PM,73.4,51.8,47,29.99,10.0,WNW,5.8,-,N/A,,Scattered Clouds,300,2013-05-07 20:35:00
3:55 PM,73.4,53.6,50,29.98,10.0,NW,4.6,-,N/A,,Clear,320,2013-05-07 20:55:00
4:15 PM,73.4,51.8,47,29.98,10.0,WNW,4.6,-,N/A,,Scattered Clouds,290,2013-05-07 21:15:00
4:35 PM,73.4,51.8,47,29.98,10.0,WNW,3.5,-,N/A,,Scattered Clouds,290,2013-05-07 21:35:00
4:55 PM,73.4,51.8,47,29.98,10.0,North,4.6,-,N/A,,Mostly Cloudy,360,2013-05-07 21:55:00
5:15 PM,73.4,53.6,50,29.98,10.0,NNE,5.8,-,N/A,,Mostly Cloudy,20,2013-05-07 22:15:00
5:35 PM,71.6,53.6,53,29.99,10.0,NNE,4.6,-,N/A,,Scattered Clouds,20,2013-05-07 22:35:00
5:55 PM,73.4,53.6,50,29.98,10.0,North,5.8,-,N/A,,Clear,350,2013-05-07 22:55:00
6:15 PM,71.6,53.6,53,29.98,10.0,Calm,Calm,-,N/A,,Mostly Cloudy,0,2013-05-07 23:15:00
6:35 PM,69.8,55.4,60,29.99,10.0,Calm,Calm,-,N/A,,Scattered Clouds,0,2013-05-07 23:35:00
6:55 PM,64.4,60.8,88,29.99,10.0,Calm,Calm,-,N/A,,Clear,0,2013-05-07 23:55:00
7:15 PM,64.4,59.0,83,29.99,10.0,Calm,Calm,-,N/A,,Clear,0,2013-05-08 00:15:00
7:35 PM,62.6,59.0,88,30.00,10.0,Calm,Calm,-,N/A,,Clear,0,2013-05-08 00:35:00
7:55 PM,60.8,59.0,94,30.00,10.0,Calm,Calm,-,N/A,,Scattered Clouds,0,2013-05-08 00:55:00
8:15 PM,60.8,57.2,88,30.00,10.0,Calm,Calm,-,N/A,,Mostly Cloudy,0,2013-05-08 01:15:00
8:35 PM,60.8,59.0,94,30.01,10.0,Calm,Calm,-,N/A,,Overcast,0,2013-05-08 01:35:00
8:55 PM,59.0,57.2,94,30.01,10.0,Calm,Calm,-,N/A,,Scattered Clouds,0,2013-05-08 01:55:00
9:15 PM,59.0,57.2,94,30.01,10.0,Calm,Calm,-,N/A,,Scattered Clouds,0,2013-05-08 02:15:00
9:35 PM,59.0,57.2,94,30.02,10.0,Calm,Calm,-,N/A,,Scattered Clouds,0,2013-05-08 02:35:00
9:55 PM,57.2,55.4,94,30.02,7.0,Calm,Calm,-,N/A,,Scattered Clouds,0,2013-05-08 02:55:00
10:15 PM,55.4,55.4,100,30.03,7.0,Calm,Calm,-,N/A,,Clear,0,2013-05-08 03:15:00
10:35 PM,55.4,55.4,100,30.03,7.0,Calm,Calm,-,N/A,,Clear,0,2013-05-08 03:35:00
10:55 PM,55.4,55.4,100,30.03,5.0,Calm,Calm,-,N/A,,Clear,0,2013-05-08 03:55:00
11:15 PM,53.6,53.6,100,30.03,5.0,Calm,Calm,-,N/A,,Clear,0,2013-05-08 04:15:00
11:35 PM,53.6,53.6,100,30.03,5.0,Calm,Calm,-,N/A,,Clear,0,2013-05-08 04:35:00
11:55 PM,53.6,53.6,100,30.03,5.0,Calm,Calm,-,N/A,,Clear,0,2013-05-08 04:55:00